This is the latest recevied weather packets stored in our database for station/object EA5BZ. If no packets are shown the sender has not sent any weather packets the latest 10 day(s).
| Time | Temp. | Humidity | Pressure | Rain* | Wind** | Luminosity | Snow |
|---|---|---|---|---|---|---|---|
| 1777244117 | 15.56° C | 82% | 1020.3 hPa | 0 mm | - | - | - |
| 1777242917 | 15.56° C | 82% | 1020.2 hPa | 0 mm | - | - | - |
| 1777240817 | 15.56° C | 82% | 1020.4 hPa | 0 mm | - | - | - |
| 1777239016 | 15.56° C | 82% | 1020.3 hPa | 0 mm | - | - | - |
| 1777237816 | 15.56° C | 82% | 1020.4 hPa | 0 mm | - | - | - |
| 1777237216 | 15.56° C | 82% | 1020.3 hPa | 0 mm | - | - | - |
| 1777236316 | 15.56° C | 82% | 1020.2 hPa | 0 mm | - | - | - |
| 1777236016 | 15.56° C | 82% | 1020.2 hPa | 0 mm | - | - | - |
| 1777234816 | 15.56° C | 82% | 1019.9 hPa | 0 mm | - | - | - |
| 1777232716 | 16.11° C | 82% | 1019.8 hPa | 0 mm | - | - | - |
| 1777231516 | 16.11° C | 82% | 1019.5 hPa | 0 mm | - | - | - |
| 1777229736 | 16.67° C | 79% | 1019 hPa | 0 mm | - | - | - |
| 1777226716 | 17.22° C | 73% | 1018.7 hPa | 0 mm | - | - | - |
| 1777225816 | 17.22° C | 73% | 1018.7 hPa | 0 mm | - | - | - |
| 1777225216 | 17.22° C | 75% | 1018.7 hPa | 0 mm | - | - | - |
| 1777224636 | 17.22° C | 74% | 1018.6 hPa | 0 mm | - | - | - |
| 1777223716 | 17.22° C | 74% | 1018.7 hPa | 0 mm | - | - | - |
| 1777222516 | 17.22° C | 73% | 1018.8 hPa | 0 mm | - | - | - |
| 1777220736 | 17.78° C | 69% | 1018.8 hPa | 0 mm | - | - | - |
| 1777218316 | 17.78° C | 69% | 1018.8 hPa | 0 mm | - | - | - |
| 1777216215 | 17.78° C | 70% | 1018.9 hPa | 0 mm | - | - | - |
| 1777212318 | 18.33° C | 71% | 1019.5 hPa | 0 mm | - | - | - |
| 1777212037 | 18.33° C | 69% | 1019.6 hPa | 0 mm | - | - | - |
| 1777211417 | 18.33° C | 70% | 1019.6 hPa | 0 mm | - | - | - |
| 1777210817 | 18.33° C | 70% | 1019.6 hPa | 0 mm | - | - | - |
* Rain latest hour (hover to see other rain measurements)
** Current wind speed in m/s (hover to see current wind gust speed)